Tracking 19920 objects as of 14-Oct-2019
HD Live streaming from Space Station
objects crossing your sky now

THORAD DELTA 1 DEB

Track THORAD DELTA 1 DEB now!
10-day predictions


NORAD ID: 8307
Int'l Code: 1974-089BQ
Perigee: 1,431.2 km
Apogee: 2,173.2 km
Inclination: 101.2 °
Period: 122.6 minutes
Semi major axis: 8173 km
RCS: 0.1335 m2 (medium)
Launch date: November 15, 1974
Source: United States (US)
Launch site: AIR FORCE WESTERN TEST RANGE (AFWTR)

Note: This is SATELLITE DEBRIS
aabbcc
Your satellite tracking list
Your tracking list is empty




NASA's NSSDC Master Catalog

Two Line Element Set (TLE):
1  8307U 74089BQ  19286.90616437 +.00000033 +00000-0 +82892-3 0  9996
2  8307 101.1820 035.3031 0453916 141.1240 331.1025 11.74940013926911
Source of the keplerian elements: AFSPC